GW2841 Weather Reports


time (UTC)temp
C
wind
direction
speed
KPH
gust
KPH
rain 1hr
cm
rain 24hr
cm
rain mn
cm
humidity
%
barometer
mb
20260507203538 32 282 1.6 9.7 0.00 0.00 0.00 10 1011.1
20260507203045 32 283 0.0 11.3 0.00 0.00 0.00 9 1011.1
20260507202534 32 283 4.8 11.3 0.00 0.00 0.00 9 1011.3
20260507202035 32 283 1.6 8.0 0.00 0.00 0.00 15 1011.3
20260507201545 32 152 1.6 8.0 0.00 0.00 0.00 10 1011.3
20260507201034 32 0 0.0 6.4 0.00 0.00 0.00 10 1011.5
20260507200534 32 0 0.0 6.4 0.00 0.00 0.00 11 1011.5
20260507200044 31 0 1.6 9.7 0.00 0.00 0.00 11 1011.7
20260507195534 31 0 0.0 9.7 0.00 0.00 0.00 12 1011.7
20260507195037 31 32 1.6 8.0 0.00 0.00 0.00 11 1011.8
20260507194550 31 337 1.6 8.0 0.00 0.00 0.00 14 1011.9
20260507194034 31 287 3.2 9.7 0.00 0.00 0.00 12 1012.0
20260507193534 31 13 0.0 9.7 0.00 0.00 0.00 13 1012.0
20260507193039 31 40 3.2 8.0 0.00 0.00 0.00 13 1012.1
20260507192536 31 281 1.6 6.4 0.00 0.00 0.00 11 1012.2
20260507192034 31 0 0.0 6.4 0.00 0.00 0.00 14 1012.3
20260507191546 31 281 1.6 4.8 0.00 0.00 0.00 11 1012.4
20260507191034 31 281 0.0 4.8 0.00 0.00 0.00 14 1012.4
20260507190534 30 69 1.6 9.7 0.00 0.00 0.00 12 1012.5
20260507190044 30 287 1.6 9.7 0.00 0.00 0.00 14 1012.5
20260507185534 31 17 3.2 9.7 0.00 0.00 0.00 13 1012.7
20260507185031 31 339 1.6 3.2 0.00 0.00 0.00 17 1012.7
20260507184544 30 0 0.0 8.0 0.00 0.00 0.00 14 1012.8
20260507184034 30 0 0.0 8.0 0.00 0.00 0.00 14 1012.9
20260507183536 30 74 1.6 12.9 0.00 0.00 0.00 14 1012.9
20260507183056 30 26 3.2 12.9 0.00 0.00 0.00 14 1012.9
20260507182531 30 46 4.8 9.7 0.00 0.00 0.00 13 1013.1
20260507182031 30 0 0.0 3.2 0.00 0.00 0.00 13 1013.1
20260507181549 30 0 0.0 1.6 0.00 0.00 0.00 17 1013.1
20260507181034 30 0 0.0 1.6 0.00 0.00 0.00 14 1013.2
20260507180534 30 0 0.0 6.4 0.00 0.00 0.00 15 1013.2
20260507180052 30 0 0.0 6.4 0.00 0.00 0.00 17 1013.2
20260507175535 30 0 1.6 6.4 0.00 0.00 0.00 18 1013.3
20260507175034 29 0 1.6 9.7 0.00 0.00 0.00 21 1013.3
20260507174546 29 225 1.6 9.7 0.00 0.00 0.00 15 1013.4
20260507174035 28 0 0.0 6.4 0.00 0.00 0.00 17 1013.3
20260507173534 28 0 0.0 0.0 0.00 0.00 0.00 19 1013.5
20260507173052 28 0 0.0 4.8 0.00 0.00 0.00 19 1013.5
20260507172538 28 0 0.0 8.0 0.00 0.00 0.00 20 1013.7
20260507172035 28 0 1.6 8.0 0.00 0.00 0.00 17 1013.7
20260507171544 28 176 1.6 6.4 0.00 0.00 0.00 18 1013.7
20260507171034 28 0 0.0 9.7 0.00 0.00 0.00 22 1013.8
20260507170533 28 0 0.0 9.7 0.00 0.00 0.00 24 1013.9
20260507170044 27 273 1.6 9.7 0.00 0.00 0.00 20 1013.9
20260507165534 27 273 0.0 3.2 0.00 0.00 0.00 23 1014.0
20260507165037 27 273 1.6 6.4 0.00 0.00 0.00 23 1014.0
20260507164548 27 0 0.0 6.4 0.00 0.00 0.00 21 1014.0
20260507164035 26 0 1.6 6.4 0.00 0.00 0.00 22 1014.0
20260507163540 26 0 1.6 4.8 0.00 0.00 0.00 23 1014.0
20260507163038 27 0 0.0 4.8 0.00 0.00 0.00 23 1014.0
20260507162535 26 0 0.0 4.8 0.00 0.00 0.00 24 1014.0
20260507162038 26 196 0.0 8.0 0.00 0.00 0.00 25 1014.0
20260507161546 26 0 0.0 8.0 0.00 0.00 0.00 25 1014.1
20260507161034 26 0 0.0 0.0 0.00 0.00 0.00 25 1014.2
20260507160534 25 0 0.0 1.6 0.00 0.00 0.00 26 1014.2
20260507160054 25 0 0.0 1.6 0.00 0.00 0.00 27 1014.2
20260507155534 25 0 0.0 0.0 0.00 0.00 0.00 27 1014.2
20260507155038 24 0 0.0 1.6 0.00 0.00 0.00 28 1014.2
20260507154549 24 0 0.0 1.6 0.00 0.00 0.00 27 1014.2
20260507154033 23 0 0.0 1.6 0.00 0.00 0.00 28 1014.2
20260507153534 23 0 0.0 6.4 0.00 0.00 0.00 27 1014.3
20260507153051 23 0 0.0 6.4 0.00 0.00 0.00 28 1014.2
20260507152531 23 121 1.6 6.4 0.00 0.00 0.00 27 1014.2
20260507152035 22 0 0.0 6.4 0.00 0.00 0.00 30 1014.3
20260507151548 22 0 1.6 8.0 0.00 0.00 0.00 29 1014.3
20260507151034 21 0 1.6 9.7 0.00 0.00 0.00 29 1014.3
20260507150538 21 0 3.2 9.7 0.00 0.00 0.00 30 1014.3
20260507150049 21 106 1.6 9.7 0.00 0.00 0.00 32 1014.2
20260507145535 21 0 1.6 8.0 0.00 0.00 0.00 33 1014.2
20260507145034 20 128 1.6 9.7 0.00 0.00 0.00 33 1014.2
20260507144550 20 121 4.8 11.3 0.00 0.00 0.00 32 1014.3
20260507144034 19 124 3.2 11.3 0.00 0.00 0.00 33 1014.3
20260507143534 19 128 3.2 9.7 0.00 0.00 0.00 34 1014.4
20260507143047 19 126 4.8 9.7 0.00 0.00 0.00 33 1014.3
20260507142534 18 121 3.2 9.7 0.00 0.00 0.00 34 1014.4
20260507142034 18 283 1.6 9.7 0.00 0.00 0.00 36 1014.4
20260507141547 18 283 3.2 9.7 0.00 0.00 0.00 36 1014.5
20260507141033 18 283 0.0 9.7 0.00 0.00 0.00 36 1014.5
20260507140530 17 283 3.2 9.7 0.00 0.00 0.00 37 1014.4
20260507135533 17 283 1.6 9.7 0.00 0.00 0.00 38 1014.3
20260507135033 17 283 4.8 9.7 0.00 0.00 0.00 38 1014.3
20260507134540 16 0 1.6 6.4 0.00 0.00 0.00 40 1014.2
20260507134030 16 283 3.2 6.4 0.00 0.00 0.00 40 1014.0
20260507133535 16 283 1.6 6.4 0.00 0.00 0.00 42 1013.7
20260507133039 16 283 3.2 6.4 0.00 0.00 0.00 43 1013.5
20260507132530 15 0 0.0 0.0 0.00 0.00 0.00 43 1013.5
20260507132030 15 0 0.0 0.0 0.00 0.00 0.00 44 1013.4
20260507131549 15 0 0.0 3.2 0.00 0.00 0.00 46 1013.3
20260507131031 15 0 0.0 3.2 0.00 0.00 0.00 46 1013.2
20260507130534 14 0 0.0 1.6 0.00 0.00 0.00 46 1013.2
20260507130052 14 0 0.0 4.8 0.00 0.00 0.00 47 1013.2
20260507125534 14 0 0.0 4.8 0.00 0.00 0.00 49 1013.2
20260507125030 14 283 1.6 4.8 0.00 0.00 0.00 51 1013.3
20260507124557 14 0 0.0 0.0 0.00 0.00 0.00 52 1013.2
20260507124030 14 0 0.0 0.0 0.00 0.00 0.00 51 1013.2
20260507123534 14 0 0.0 0.0 0.00 0.00 0.00 50 1013.2
20260507123053 15 0 0.0 1.6 0.00 0.00 0.00 49 1013.2
20260507122533 15 0 0.0 1.6 0.00 0.00 0.00 49 1013.3
20260507122032 15 283 0.0 3.2 0.00 0.00 0.00 49 1013.3
20260507121543 15 0 0.0 6.4 0.00 0.00 0.00 48 1013.3
20260507121030 15 0 0.0 6.4 0.00 0.00 0.00 48 1013.3
20260507120530 15 283 3.2 6.4 0.00 0.00 0.00 49 1013.3
20260507120040 15 283 3.2 6.4 0.00 0.00 0.00 50 1013.2
20260507115531 15 0 0.0 0.0 0.00 0.00 0.00 51 1013.1
20260507115029 15 0 0.0 0.0 0.00 0.00 0.00 52 1013.1
20260507114548 15 0 0.0 0.0 0.00 0.00 0.00 51 1013.2
20260507114031 15 0 0.0 0.0 0.00 0.00 0.00 52 1013.3
20260507113530 15 0 0.0 0.0 0.00 0.00 0.00 53 1013.3
20260507113045 15 0 0.0 0.0 0.00 0.00 0.00 53 1013.2
20260507112530 15 0 0.0 0.0 0.00 0.00 0.00 53 1013.2
20260507112030 15 0 0.0 0.0 0.00 0.00 0.00 54 1013.3
20260507111547 15 0 0.0 0.0 0.00 0.00 0.00 54 1013.2
20260507111029 15 0 0.0 0.0 0.00 0.00 0.00 53 1013.2
20260507110533 15 0 0.0 0.0 0.00 0.00 0.00 53 1013.2
20260507110044 15 0 0.0 0.0 0.00 0.00 0.00 54 1013.2
20260507105532 15 0 0.0 0.0 0.00 0.00 0.00 53 1013.3
20260507105033 15 0 0.0 0.0 0.00 0.00 0.00 53 1013.3
20260507104540 15 0 0.0 0.0 0.00 0.00 0.00 53 1013.2
20260507104030 15 0 0.0 0.0 0.00 0.00 0.00 54 1013.4
20260507103529 15 0 0.0 0.0 0.00 0.00 0.00 54 1013.2
20260507103039 15 0 0.0 0.0 0.00 0.00 0.00 54 1013.3
20260507102529 15 0 0.0 0.0 0.00 0.00 0.00 55 1013.3
20260507102031 15 0 0.0 0.0 0.00 0.00 0.00 54 1013.4
20260507101545 15 0 0.0 0.0 0.00 0.00 0.00 54 1013.4
20260507101036 15 0 0.0 0.0 0.00 0.00 0.00 53 1013.4
20260507100529 15 0 0.0 0.0 0.00 0.00 0.00 52 1013.4
20260507100047 15 0 0.0 0.0 0.00 0.00 0.00 51 1013.5
20260507095532 16 0 0.0 0.0 0.00 0.00 0.00 50 1013.6
20260507095034 15 0 0.0 0.0 0.00 0.00 0.00 50 1013.6
20260507094543 16 0 0.0 0.0 0.00 0.00 0.00 50 1013.7
20260507094032 16 0 0.0 0.0 0.00 0.00 0.00 51 1013.7
20260507093532 16 0 0.0 0.0 0.00 0.00 0.00 48 1013.7
20260507093042 16 0 0.0 0.0 0.00 0.00 0.00 47 1013.8
20260507092534 16 0 0.0 0.0 0.00 0.00 0.00 47 1013.8
20260507092031 16 0 0.0 0.0 0.00 0.00 0.00 48 1013.8
20260507091538 16 0 0.0 0.0 0.00 0.00 0.00 48 1013.8
20260507091033 16 0 0.0 0.0 0.00 0.00 0.00 47 1013.8
20260507090533 16 0 0.0 0.0 0.00 0.00 0.00 46 1013.9
20260507090041 16 0 0.0 0.0 0.00 0.00 0.00 44 1014.0
20260507085531 16 0 0.0 0.0 0.00 0.00 0.00 43 1014.0
20260507085032 16 0 0.0 0.0 0.00 0.00 0.00 44 1014.0
20260507084552 17 0 0.0 0.0 0.00 0.00 0.00 47 1014.0
20260507084036 17 0 0.0 0.0 0.00 0.00 0.00 42 1014.0
20260507083532 17 0 0.0 1.6 0.00 0.00 0.00 43 1014.0
20260507083050 17 0 0.0 1.6 0.00 0.00 0.00 42 1014.1
20260507082534 17 0 0.0 1.6 0.00 0.00 0.00 43 1014.1
20260507082034 17 0 0.0 1.6 0.00 0.00 0.00 44 1014.0
20260507081543 17 0 0.0 1.6 0.00 0.00 0.00 45 1014.0
20260507081034 17 0 0.0 1.6 0.00 0.00 0.00 44 1014.0
20260507080532 17 0 0.0 0.0 0.00 0.00 0.00 44 1014.1
20260507080055 17 0 0.0 0.0 0.00 0.00 0.00 44 1014.2
20260507075532 17 0 0.0 0.0 0.00 0.00 0.00 45 1014.2
20260507075033 17 0 0.0 0.0 0.00 0.00 0.00 44 1014.2
20260507074557 17 0 0.0 0.0 0.00 0.00 0.00 42 1014.2
20260507074031 17 0 0.0 0.0 0.00 0.00 0.00 44 1014.1
20260507073531 17 0 0.0 0.0 0.00 0.00 0.00 44 1014.1
20260507073052 17 0 0.0 0.0 0.00 0.00 0.00 43 1014.1
20260507072532 17 0 0.0 0.0 0.00 0.00 0.00 40 1014.2
20260507072031 17 0 0.0 0.0 0.00 0.00 0.00 41 1014.2
20260507071600 18 0 0.0 0.0 0.00 0.00 0.00 39 1014.3
20260507071033 18 0 0.0 0.0 0.00 0.00 0.00 38 1014.3
20260507070533 18 0 0.0 0.0 0.00 0.00 0.00 38 1014.3
20260507070046 18 0 0.0 0.0 0.00 0.00 0.00 38 1014.4
20260507065533 18 0 0.0 0.0 0.00 0.00 0.00 39 1014.3
20260507065033 18 0 0.0 0.0 0.00 0.00 0.00 38 1014.3
20260507064546 18 0 0.0 0.0 0.00 0.00 0.00 38 1014.3
20260507064032 18 0 0.0 0.0 0.00 0.00 0.00 38 1014.2
20260507063531 18 0 0.0 0.0 0.00 0.00 0.00 40 1014.2
20260507063042 18 0 0.0 0.0 0.00 0.00 0.00 39 1014.2
20260507062532 19 0 0.0 0.0 0.00 0.00 0.00 39 1014.1
20260507062033 19 0 0.0 1.6 0.00 0.00 0.00 39 1014.1
20260507061539 19 0 0.0 1.6 0.00 0.00 0.00 38 1014.1
20260507061033 19 0 0.0 1.6 0.00 0.00 0.00 37 1014.1
20260507060531 19 0 0.0 1.6 0.00 0.00 0.00 38 1014.1
20260507060039 19 0 0.0 1.6 0.00 0.00 0.00 39 1014.2
20260507055532 19 0 0.0 0.0 0.00 0.00 0.00 39 1014.1
20260507055031 19 0 0.0 0.0 0.00 0.00 0.00 36 1014.3
20260507054552 19 0 0.0 0.0 0.00 0.00 0.00 39 1014.2
20260507054031 19 0 0.0 0.0 0.00 0.00 0.00 39 1014.2
20260507053532 19 0 0.0 0.0 0.00 0.00 0.00 37 1014.2
20260507053052 20 0 0.0 0.0 0.00 0.00 0.00 37 1014.2
20260507052534 20 0 0.0 0.0 0.00 0.00 0.00 36 1014.2
20260507052029 20 0 0.0 0.0 0.00 0.00 0.00 35 1014.2
20260507051545 20 0 0.0 0.0 0.00 0.00 0.00 36 1014.2
20260507051028 20 0 0.0 0.0 0.00 0.00 0.00 35 1014.1
20260507050533 20 0 0.0 0.0 0.00 0.00 0.00 35 1014.1
20260507050051 20 0 0.0 0.0 0.00 0.00 0.00 34 1013.9
20260507045532 20 0 0.0 0.0 0.00 0.00 0.00 33 1013.8
20260507045032 21 0 0.0 1.6 0.00 0.00 0.00 32 1013.8
20260507044539 21 0 0.0 1.6 0.00 0.00 0.00 32 1013.8
20260507044034 21 0 0.0 0.0 0.00 0.00 0.00 33 1013.7
20260507043533 21 0 0.0 0.0 0.00 0.00 0.00 32 1013.8
20260507043039 21 0 0.0 0.0 0.00 0.00 0.00 32 1013.8
20260507042532 21 0 0.0 0.0 0.00 0.00 0.00 31 1013.8
20260507042032 21 0 0.0 0.0 0.00 0.00 0.00 28 1013.8
20260507041538 21 0 0.0 0.0 0.00 0.00 0.00 28 1013.7
20260507041031 21 0 0.0 0.0 0.00 0.00 0.00 28 1013.8
20260507040532 22 0 0.0 0.0 0.00 0.00 0.00 28 1013.7
20260507040058 22 0 0.0 0.0 0.00 0.00 0.00 29 1013.7
20260507035529 22 0 0.0 0.0 0.00 0.00 0.00 28 1013.7
20260507035032 22 0 0.0 1.6 0.00 0.00 0.00 26 1013.6
20260507034553 22 0 0.0 1.6 0.00 0.00 0.00 27 1013.5
20260507034033 22 0 0.0 0.0 0.00 0.00 0.00 26 1013.3
20260507033533 23 0 0.0 0.0 0.00 0.00 0.00 25 1013.3
20260507033043 23 0 0.0 0.0 0.00 0.00 0.00 25 1013.2
20260507032535 23 0 0.0 1.6 0.00 0.00 0.00 25 1013.2
20260507032032 23 0 0.0 1.6 0.00 0.00 0.00 24 1013.2
20260507031539 24 0 0.0 1.6 0.00 0.00 0.00 24 1013.3
20260507031033 24 0 0.0 1.6 0.00 0.00 0.00 24 1013.4
20260507030532 24 0 0.0 1.6 0.00 0.00 0.00 23 1013.3
20260507030038 24 0 0.0 3.2 0.00 0.00 0.00 23 1013.3
20260507025532 25 0 0.0 3.2 0.00 0.00 0.00 24 1013.3
20260507025031 25 0 0.0 4.8 0.00 0.00 0.00 23 1013.1
20260507024545 25 0 0.0 4.8 0.00 0.00 0.00 22 1013.1
20260507024031 25 283 0.0 4.8 0.00 0.00 0.00 22 1013.1
20260507023531 25 283 0.0 3.2 0.00 0.00 0.00 22 1013.0
20260507023045 25 0 0.0 4.8 0.00 0.00 0.00 22 1012.9
20260507022532 25 0 0.0 4.8 0.00 0.00 0.00 22 1012.9
20260507022029 25 0 1.6 4.8 0.00 0.00 0.00 22 1012.9
20260507021546 25 283 0.0 1.6 0.00 0.00 0.00 22 1012.9
20260507021033 25 0 0.0 1.6 0.00 0.00 0.00 22 1012.8
20260507020532 26 0 0.0 1.6 0.00 0.00 0.00 22 1012.7
20260507020040 26 0 0.0 0.0 0.00 0.00 0.00 21 1012.7
20260507015531 26 0 0.0 0.0 0.00 0.00 0.00 21 1012.6
20260507015032 26 0 0.0 0.0 0.00 0.00 0.00 20 1012.6
20260507014538 26 0 0.0 0.0 0.00 0.00 0.00 21 1012.7
20260507014033 26 0 0.0 0.0 0.00 0.00 0.00 20 1012.7
20260507013536 26 0 0.0 9.7 0.00 0.00 0.00 20 1012.7
20260507013048 27 0 0.0 9.7 0.00 0.00 0.00 19 1012.6
20260507012531 27 0 0.0 6.4 0.00 0.00 0.00 19 1012.7
20260507012031 27 283 1.6 9.7 0.00 0.00 0.00 19 1012.7
20260507011540 27 283 1.6 9.7 0.00 0.00 0.00 20 1012.8
20260507011031 27 283 0.0 9.7 0.00 0.00 0.00 19 1012.7
20260507010531 27 0 0.0 11.3 0.00 0.00 0.00 19 1012.7
20260507010044 27 288 4.8 11.3 0.00 0.00 0.00 19 1012.7
20260507005533 27 273 3.2 6.4 0.00 0.00 0.00 19 1012.7
20260507005032 27 0 0.0 1.6 0.00 0.00 0.00 20 1012.7
20260507004542 27 0 0.0 9.7 0.00 0.00 0.00 20 1012.7
20260507004033 27 0 0.0 9.7 0.00 0.00 0.00 19 1012.6
20260507003535 28 270 3.2 9.7 0.00 0.00 0.00 19 1012.7
20260507003041 28 270 0.0 4.8 0.00 0.00 0.00 19 1012.6
20260507002533 28 270 0.0 3.2 0.00 0.00 0.00 18 1012.5
20260507002034 28 0 0.0 3.2 0.00 0.00 0.00 19 1012.6
20260507001548 28 0 0.0 4.8 0.00 0.00 0.00 20 1012.6
20260507001031 28 0 0.0 4.8 0.00 0.00 0.00 19 1012.6
20260507000531 28 265 0.0 11.3 0.00 0.00 0.00 19 1012.6
20260507000057 27 0 1.6 11.3 0.00 0.00 0.00 20 1012.7
20260506235532 27 267 0.0 9.7 0.00 0.00 0.00 19 1012.7
20260506235032 27 279 1.6 6.4 0.00 0.00 0.00 19 1012.6
20260506234544 27 0 0.0 11.3 0.00 0.00 0.00 19 1012.7
20260506234031 27 279 3.2 11.3 0.00 0.00 0.00 19 1012.7
20260506233533 27 277 1.6 12.9 0.00 0.00 0.00 20 1012.7
20260506233046 27 277 4.8 12.9 0.00 0.00 0.00 19 1012.7
20260506232531 28 304 4.8 12.9 0.00 0.00 0.00 21 1012.7
20260506232031 28 281 3.2 14.5 0.00 0.00 0.00 19 1012.8
20260506231544 28 0 1.6 14.5 0.00 0.00 0.00 20 1012.8
20260506231033 27 0 0.0 12.9 0.00 0.00 0.00 22 1012.8
20260506230532 27 0 4.8 12.9 0.00 0.00 0.00 20 1013.0
20260506230047 27 288 1.6 8.0 0.00 0.00 0.00 22 1013.1
20260506225531 27 320 0.0 11.3 0.00 0.00 0.00 24 1013.1
20260506225032 27 289 1.6 14.5 0.00 0.00 0.00 23 1013.2
20260506224550 27 285 4.8 14.5 0.00 0.00 0.00 21 1013.2
20260506224032 27 0 1.6 14.5 0.00 0.00 0.00 21 1013.3
20260506223531 27 0 1.6 14.5 0.00 0.00 0.00 21 1013.4
20260506223037 27 286 1.6 12.9 0.00 0.00 0.00 21 1013.4
20260506222532 27 273 0.0 8.0 0.00 0.00 0.00 22 1013.5
20260506222033 27 0 0.0 1.6 0.00 0.00 0.00 20 1013.5
20260506221546 26 0 0.0 0.0 0.00 0.00 0.00 22 1013.5
20260506221033 26 0 0.0 1.6 0.00 0.00 0.00 20 1013.5
20260506220531 27 0 0.0 6.4 0.00 0.00 0.00 20 1013.6
20260506220058 27 0 0.0 8.0 0.00 0.00 0.00 21 1013.7
20260506215531 27 288 3.2 8.0 0.00 0.00 0.00 22 1013.8
20260506215031 27 289 0.0 4.8 0.00 0.00 0.00 22 1013.8
20260506214546 27 315 1.6 4.8 0.00 0.00 0.00 22 1014.0
20260506214032 26 0 0.0 6.4 0.00 0.00 0.00 25 1014.1
20260506213533 26 286 1.6 8.0 0.00 0.00 0.00 25 1014.2
20260506213041 26 290 1.6 8.0 0.00 0.00 0.00 23 1014.2
20260506212534 26 287 1.6 8.0 0.00 0.00 0.00 27 1014.3
20260506212032 26 0 0.0 9.7 0.00 0.00 0.00 25 1014.3
20260506211540 26 304 3.2 9.7 0.00 0.00 0.00 24 1014.3
20260506211032 26 310 1.6 6.4 0.00 0.00 0.00 26 1014.4
20260506210534 26 0 1.6 11.3 0.00 0.00 0.00 22 1014.5
20260506210057 26 343 1.6 11.3 0.00 0.00 0.00 24 1014.5
20260506205531 26 288 0.0 14.5 0.00 0.00 0.00 24 1014.6
20260506205031 26 317 1.6 14.5 0.00 0.00 0.00 27 1014.6
20260506204550 26 0 1.6 14.5 0.00 0.00 0.00 26 1014.6
20260506204034 26 297 1.6 11.3 0.00 0.00 0.00 23 1014.7